Flag for U.S.A. Weather past 2 weeks in Carson City, Nevada, U.S.A.

Now
82 °F

Broken clouds.


Feels Like: 80 °F
Forecast: 55 / 83 °F
Wind: 14 mph from Northwest

Location: Reno Tahoe International Airport

Current Time: Sep 16, 2014 at 7:24:32 PM

Latest Report: Sep 16, 2014 at 6:55 PM


Visibility: 2 mi

Pressure: 29.80 "Hg

Humidity: 19%

Dew point: 36 °F

Location of Carson CityLocation

Historic Weather in Carson City — Graph

°F

Carson City temperature yesterday

Maximum temperature yesterday: 93 °F (at 2:55 PM)
Minimum temperature yesterday: 57 °F (at 5:55 AM)
Average temperature yesterday: 74 °F

Past Weeks' High & Low Weather Summary

 TemperatureHumidityPressure
High95 °F (Sep 2, 2:55 PM)60% (Sep 16, 6:55 AM)30.06 "Hg (Sep 16, 6:55 AM)
Low50 °F (Sep 9, 6:55 AM)7% (Sep 4, 2:55 PM)29.68 "Hg (Sep 3, 3:55 PM)
Average73 °F25%29.88 "Hg
* Reported Sep 1 5:55 PM — Sep 16 5:55 PM, Carson City, Weather by CustomWeather, © 2014

Note: Actual official high and low records may vary slightly from our data, if they occured in-between our weather recording intervals... More about our weather records

Advertising

Carson City weather history for previous 24 hours

 ConditionsComfort  
Time TempWeatherWind HumidityBarometerVisibility
5:55 PM
Sep 16
85 °FScattered clouds.15 mph17%29.78 "Hg5 mi
4:55 PM92 °FPassing clouds.12 mph10%29.76 "Hg10 mi
3:55 PM91 °FPassing clouds.16 mph10%29.77 "Hg10 mi
2:55 PM92 °FPassing clouds.23 mph10%29.79 "Hg10 mi
1:55 PM91 °FPassing clouds.20 mph12%29.81 "Hg10 mi
12:55 PM89 °FPassing clouds.17 mph16%29.84 "Hg10 mi
11:55 AM87 °FPassing clouds.23 mph20%29.85 "Hg10 mi
10:55 AM84 °FPassing clouds.20 mph25%29.87 "Hg10 mi
9:55 AM78 °FPassing clouds.3 mph32%29.89 "Hg10 mi
8:55 AM69 °FSunny.3 mph45%29.91 "Hg10 mi
7:55 AM63 °FSunny.No wind54%29.93 "Hg7 mi
6:55 AM59 °FClear.No wind60%29.92 "Hg8 mi
5:55 AM61 °FClear.No wind58%29.90 "Hg7 mi
4:55 AM62 °FClear.No wind54%29.88 "Hg7 mi
3:55 AM64 °FClear.No wind49%29.88 "Hg8 mi
2:55 AM65 °FClear.6 mph49%29.88 "Hg7 mi
1:55 AM67 °FClear.5 mph44%29.88 "Hg8 mi
12:55 AM68 °FClear.3 mph44%29.88 "Hg6 mi
11:55 PM
Sep 15
72 °FPassing clouds.5 mph37%29.88 "Hg6 mi
10:55 PM73 °FPassing clouds.No wind36%29.88 "Hg6 mi
9:55 PM76 °FPassing clouds.5 mph32%29.89 "Hg6 mi
8:55 PM78 °FPassing clouds.6 mph29%29.88 "Hg5 mi
7:55 PM80 °FScattered clouds.No wind27%29.87 "Hg6 mi
Weather by CustomWeather, © 2014

See weather overviewHow to use our weather pages